Location: Kirkland Lake
(48.1510°N, 80.0330°W)
Time: 23:40:13
(UTC-04:00)

ISS - Visible Passes

Search period start: 25 September 2017 00:00
Search period end: 05 October 2017 00:00
Orbit: 401 x 407 km, 51.6° (Epoch: 26 September)

Date Brightness Start Highest point End Pass type
(mag) Time Alt. Az. Time Alt. Az. Time Alt. Az.
25 Sep -1.5 19:56:47 10° SE 19:57:01 10° SE 19:57:15 10° SE visible
25 Sep -1.2 21:29:40 10° SW 21:30:17 14° SW 21:30:17 14° SW visible
26 Sep -3.0 20:37:38 10° SSW 20:40:34 33° SSE 20:40:34 33° SSE visible
27 Sep -2.3 19:45:55 10° S 19:48:25 20° SE 19:50:42 11° E visible
27 Sep -2.4 21:21:18 10° WSW 21:23:22 36° WSW 21:23:22 36° WSW visible
28 Sep -3.8 20:28:59 10° SW 20:32:13 64° SSE 20:33:19 36° E visible
28 Sep -0.5 22:05:36 10° W 22:05:59 13° W 22:05:59 13° W visible
29 Sep -3.2 19:36:50 10° SW 19:39:55 39° SSE 19:43:00 10° ENE visible
29 Sep -2.9 21:13:05 10° W 21:15:48 49° NW 21:15:48 49° NW visible
30 Sep -3.8 20:20:36 10° WSW 20:23:53 76° NNW 20:25:32 27° ENE visible
30 Sep -0.7 21:57:28 10° WNW 21:58:11 15° WNW 21:58:11 15° WNW visible
01 Oct -3.8 19:28:12 10° WSW 19:31:27 74° SSE 19:34:44 10° ENE visible
01 Oct -2.9 21:04:55 10° W 21:07:50 44° NNW 21:07:50 44° NNW visible
02 Oct -3.3 20:12:21 10° W 20:15:34 52° NNW 20:17:26 22° ENE visible
02 Oct -0.8 21:49:11 10° WNW 21:50:04 17° WNW 21:50:04 17° WNW visible
03 Oct -2.9 20:56:40 10° WNW 20:59:37 42° N 20:59:37 42° N visible
04 Oct -3.0 20:04:06 10° WNW 20:07:15 44° N 20:09:09 20° ENE visible
04 Oct -0.9 21:40:47 10° WNW 21:41:47 18° WNW 21:41:47 18° WNW visible
